Home > Time Zones > World Clock > Weather > Italy > Parma > Past weeks

Flag for Italy Weather past 2 weeks in Parma, Italy

Now
57 °F

Partly cloudy.


Feels Like: 57 °F
Forecast: 55 / 69 °F
Wind: 2 mph from North

Location: Parma

Current Time: Apr 26, 2015 at 2:24:40 AM

Latest Report: Apr 25, 2015 at 10:50 PM


Visibility: 4 mi

Pressure: 29.98 "Hg

Humidity: 94%

Dew point: 55 °F

Location of ParmaLocation

Historic Weather in Parma — Graph

°F

Parma temperature yesterday

Maximum temperature yesterday: 64 °F (at 2:50 PM)
Minimum temperature yesterday: 52 °F (at 7:00 AM)
Average temperature yesterday: 59 °F

Past Weeks' High & Low Weather Summary

 TemperatureHumidityPressure
High79 °F (Apr 22, 4:50 PM)100% (Apr 25, 8:50 AM)30.45 "Hg (Apr 25, 8:50 AM)
Low41 °F (Apr 11, 7:00 AM)26% (Apr 22, 8:50 PM)29.89 "Hg (Apr 18, 7:00 AM)
Average62 °F61%30.12 "Hg
* Reported Apr 10 10:50 PM — Apr 25 10:50 PM, Parma, Weather by CustomWeather, © 2015

Note: Actual official high and low records may vary slightly from our data, if they occured in-between our weather recording intervals... More about our weather records

Advertising

Parma weather history for previous 24 hours

 ConditionsComfort  
Time TempWeatherWind HumidityBarometerVisibility
10:50 PM
Sat, Apr 25
57 °FPartly cloudy.2 mph94%29.98 "Hg4 mi
9:50 PM57 °FPassing clouds.6 mph88%30.01 "Hg4 mi
8:50 PM59 °FBroken clouds.5 mph88%29.98 "Hg4 mi
7:50 PM61 °FBroken clouds.3 mph83%29.98 "Hg4 mi
6:50 PM61 °FBroken clouds.5 mph83%29.98 "Hg4 mi
5:50 PM63 °FBroken clouds.5 mph77%29.98 "Hg4 mi
4:50 PM63 °FPartly sunny.2 mph73%29.98 "Hg5 mi
3:50 PM64 °FScattered clouds.5 mph68%30.01 "Hg4 mi
2:50 PM64 °FPassing clouds.6 mph68%30.01 "Hg5 mi
1:50 PM63 °FPassing clouds.6 mph73%30.04 "Hg4 mi
12:50 PM61 °FPassing clouds.7 mph77%30.04 "Hg4 mi
11:50 AM59 °FScattered clouds.7 mph82%30.04 "Hg4 mi
10:50 AM57 °FFog.7 mph88%30.07 "Hg2 mi
9:50 AM54 °FFog.7 mph94%30.04 "Hg1 mi
8:50 AM52 °FFog.6 mph100%30.04 "Hg1 mi
7:50 AM52 °FFog.6 mph94%30.04 "Hg1 mi
7:00 AM52 °FFog.5 mph94%30.01 "Hg1 mi
Weather by CustomWeather, © 2015

See weather overviewHow to use our weather pages